This demonstration page uses our WeatherBlox Daily Observations layout. Learn more.

Left ArrowRight Arrow

41.12389, -100.76542

Hourly Observations for February 11, 2017

Temp ( °F °C ) Dew Point ( °F °C ) Humidity (%) Winds ( mph kmh ) Pressure ( in mb ) Visibility ( mi km ) Precip ( " mm )
12:53 am 00:53 Clear 44 6.7 34 1.1 68 68 Calm 29.77 1008 10 16 0.00 0.00
1:53 am 01:53 Clear 45 7.2 35 1.7 68 68 VRB 5 7 29.77 1008 10 16 0.00 0.00
2:53 am 02:53 Clear 43 6.1 34 1.1 71 71 W 5 7 29.80 1009 10 16 0.00 0.00
3:53 am 03:53 Clear 38 3.3 32 0 79 79 Calm 29.82 1010 10 16 0.00 0.00
4:53 am 04:53 Clear 36 2.2 32 0 86 86 Calm 29.84 1011 10 16 0.00 0.00
5:53 am 05:53 Clear 32 0 30 -1.1 92 92 ESE 3 6 29.83 1010 10 16 0.00 0.00
6:53 am 06:53 Clear 32 0 29 -1.7 88 88 N 5 7 29.87 1012 10 16 0.00 0.00
7:53 am 07:53 Sunny 30 -1.1 29 -1.7 96 96 Calm 29.89 1012 10 16 0.00 0.00
8:53 am 08:53 Sunny 36 2.2 33 0.6 89 89 NW 3 6 29.91 1013 10 16 0.00 0.00
9:53 am 09:53 Mostly Sunny 42 5.6 35 1.7 76 76 N 3 6 29.91 1013 10 16 0.00 0.00
10:53 am 10:53 Mostly Sunny 45 7.2 33 0.6 63 63 Calm 29.92 1013 10 16 0.00 0.00
11:53 am 11:53 Cloudy 45 7.2 34 1.1 66 66 SW 3 6 29.94 1014 10 16 0.00 0.00
12:53 pm 12:53 Mostly Cloudy 48 8.9 33 0.6 56 56 W 7 11 29.94 1014 10 16 0.00 0.00
1:53 pm 13:53 Mostly Sunny 52 11.1 31 -0.6 45 45 WNW 7 11 29.92 1013 10 16 0.00 0.00
2:53 pm 14:53 Sunny 58 14.4 30 -1.1 35 35 NNW 13 20 29.91 1013 10 16 0.00 0.00
3:53 pm 15:53 Partly Cloudy 57 13.9 29 -1.7 34 34 NNW 15 24 29.96 1015 10 16 0.00 0.00
4:53 pm 16:53 Mostly Cloudy 53 11.7 31 -0.6 43 43 N 10 17 29.99 1016 10 16 0.00 0.03
5:53 pm 17:53 Cloudy 50 10 34 1.1 54 54 N 7 11 30.03 1017 10 16 0.00 0.00
6:53 pm 18:53 Mostly Clear 45 7.2 33 0.6 63 63 W 6 9 30.10 1019 10 16 0.00 0.00
7:53 pm 19:53 Mostly Clear 43 6.1 33 0.6 68 68 NW 12 19 30.15 1021 10 16 0.00 0.00
8:53 pm 20:53 Clear 43 6.1 28 -2.2 56 56 N 25 41 30.19 1022 10 16 0.00 0.00
9:53 pm 21:53 Clear 40 4.4 23 -5 51 51 N 18 30 30.24 1024 10 16 0.00 0.00
10:53 pm 22:53 Clear 38 3.3 25 -3.9 60 60 N 12 19 30.28 1025 10 16 0.00 0.00
11:53 pm 23:53 Clear 36 2.2 25 -3.9 64 64 NNW 10 17 30.32 1027 10 16 0.00 0.00

Powered by AerisWeather